Weather History for Sussex, NJ

Change the Weather History Date:

Monday, May 12, 2014

  Actual Average Record
Temperature  
Mean Temperature 66 °F -  
Max Temperature 84 °F 69 °F 88 °F (1964)
Min Temperature 48 °F 43 °F 29 °F (1969)
Cooling Degree Days 1    
Growing Degree Days 16 (Base 50)    
Moisture  
Dew Point 50 °F    
Average Humidity 57    
Maximum Humidity 89    
Minimum Humidity 31    
Precipitation  
Precipitation 0.00 in - - ()
Sea Level Pressure  
Sea Level Pressure 30.07 in    
Wind  
Wind Speed 2 mph (SW)    
Max Wind Speed 9 mph    
Max Gust Speed -    
Visibility 10 miles    
Events      
Averages and records for this station are not official NWS values.
T = Trace of Precipitation, MM = Missing Value Source: NWS Daily Summary

Daily Weather History Graph

Daily Weather History Graph

Search for Another Location

Airport:

Trip Planner

Search our weather history database for the weather conditions in past years. The results will help you decide how hot, cold, wet, or windy it might be!

Date:

Astronomy

May. 12, 2014 Rise Set
Actual Time 5:43 AM EDT 8:07 PM EDT
Civil Twilight 5:12 AM EDT 8:38 PM EDT
Nautical Twilight 4:33 AM EDT 9:16 PM EDT
Astronomical Twilight 3:50 AM EDT 9:59 PM EDT
Moon 6:01 PM EDT (5/12) 4:22 AM EDT (5/12)
Length of Visible Light 15h 26m
Length of Day
14h 23m
Waxing Gibbous, 95% of the Moon is Illuminated
May 12
Waxing Gibbous
May 14
Full
May 21
Last Quarter
May 28
New
Jun 5
First Quarter

Hourly Weather History & Observations

Time (EDT) Temp. Heat Index Dew Point Humidity Pressure Visibility Wind Dir Wind Speed Gust Speed Precip Events Conditions
12:53 AM 51.1 °F - 45.0 °F 80% 30.09 in 10.0 mi Calm Calm - N/A   Clear
1:53 AM 51.1 °F - 45.0 °F 80% 30.09 in 10.0 mi Calm Calm - N/A   Clear
2:53 AM 50.0 °F - 45.0 °F 83% 30.09 in 10.0 mi Calm Calm - N/A   Clear
3:53 AM 48.9 °F - 44.1 °F 83% 30.11 in 10.0 mi Calm Calm - N/A   Clear
4:53 AM 48.9 °F - 44.1 °F 83% 30.09 in 10.0 mi Calm Calm - N/A   Clear
5:53 AM 48.0 °F - 44.1 °F 86% 30.11 in 10.0 mi Calm Calm - N/A   Clear
6:53 AM 50.0 °F - 46.9 °F 89% 30.12 in 10.0 mi Calm Calm - N/A   Clear
7:53 AM 57.9 °F - 48.9 °F 72% 30.12 in 10.0 mi Calm Calm - N/A   Clear
8:53 AM 68.0 °F - 51.1 °F 55% 30.12 in 10.0 mi SSW 3.5 mph - N/A   Clear
10:53 AM 77.0 °F - 50.0 °F 39% 30.11 in 10.0 mi Calm Calm - N/A   Clear
11:53 AM 81.0 °F - 50.0 °F 34% 30.10 in 10.0 mi East 3.5 mph - N/A   Mostly Cloudy
12:53 PM 84.0 °F - 50.0 °F 31% 30.08 in 10.0 mi SSW 6.9 mph - N/A   Clear
1:53 PM 84.9 °F - 51.1 °F 31% 30.06 in 10.0 mi Calm Calm - N/A   Clear
2:53 PM 84.0 °F - 52.0 °F 33% 30.04 in 10.0 mi Variable 4.6 mph - N/A   Clear
3:53 PM 84.0 °F - 52.0 °F 33% 30.03 in 9.0 mi SSW 9.2 mph - N/A   Overcast
4:53 PM 82.9 °F 81.8 °F 53.1 °F 36% 30.02 in 10.0 mi SW 9.2 mph - N/A   Mostly Cloudy
5:53 PM 81.0 °F 80.5 °F 54.0 °F 39% 30.04 in 10.0 mi Calm Calm - N/A   Overcast
6:53 PM 80.1 °F 80.0 °F 54.0 °F 40% 30.04 in 10.0 mi SW 4.6 mph - N/A   Overcast
7:53 PM 79.0 °F - 54.0 °F 42% 30.04 in 10.0 mi Variable 5.8 mph - N/A   Overcast
8:53 PM 73.9 °F - 55.9 °F 53% 30.04 in 10.0 mi West 3.5 mph - N/A   Partly Cloudy
9:53 PM 70.0 °F - 57.9 °F 65% 30.05 in 10.0 mi Calm Calm - N/A   Mostly Cloudy
11:53 PM 66.0 °F - 59.0 °F 78% 30.06 in 10.0 mi WSW 3.5 mph - N/A   Clear